Jackson, Tennessee, United States (38301)
Lat: 35.61N, Lon: 88.81W
Wx Zone: TNZ052
Local Info
Past Weather Observations for Monday, July 28, 2014

NOTE: This archive is for the closest National Weather Service station to Jackson. Information may differ from the station used for current weather conditions.

Click here for Long-term Archive

Time Weather Temperature Dewpoint Humidity Pressure Winds Precip Visibility
23:53
Overcast
68°F / 20°C 63°F / 17°C 83% 30.06 in
(1018 mb)
NNE 4.6 mph
(NNE 7 kph)
- 10SM
22:53
Mostly Cloudy
66°F / 19°C 63°F / 17°C 88% 30.06 in
(1018 mb)
Calm - 10SM
21:53
Clear
68°F / 20°C 63°F / 17°C 83% 30.06 in
(1018 mb)
Calm - 10SM
20:53
Clear
70°F / 21°C 63°F / 17°C 78% 30.06 in
(1018 mb)
Calm - 10SM
19:53
Clear
72°F / 22°C 63°F / 17°C 73% 30.04 in
(1017 mb)
Calm - 10SM
18:53
Clear
75°F / 24°C 63°F / 17°C 65% 30.04 in
(1017 mb)
N 3.5 mph
(N 6 kph)
- 10SM
17:53
Clear
81°F / 27°C 63°F / 17°C 54% 30.04 in
(1017 mb)
N 9.2 mph
(N 15 kph)
- 10SM
16:53
Partly Cloudy
82°F / 28°C 63°F / 17°C 51% 30.04 in
(1017 mb)
NNW 12.7 mph
(NNW 20 kph)
- 10SM
15:53
Partly Cloudy
82°F / 28°C 63°F / 17°C 51% 30.04 in
(1017 mb)
NNW 13.8 mph
(NNW 22 kph)
- 10SM
14:53
Partly Cloudy
84°F / 29°C 63°F / 17°C 48% 30.04 in
(1017 mb)
NW 11.5 mph
(NW 19 kph)
- 10SM
13:53
Partly Cloudy
82°F / 28°C 63°F / 17°C 51% 30.06 in
(1018 mb)
NNW 12.7 mph
(NNW 20 kph)
- 10SM
12:53
Partly Cloudy
82°F / 28°C 63°F / 17°C 51% 30.06 in
(1018 mb)
NNW 13.8 mph
(NNW 22 kph)
- 10SM
11:53
Partly Cloudy
82°F / 28°C 63°F / 17°C 51% 30.06 in
(1018 mb)
NNW 12.7 mph
(NNW 20 kph)
- 10SM
10:53
Partly Cloudy
79°F / 26°C 61°F / 16°C 54% 30.06 in
(1018 mb)
NW 9.2 mph
(NW 15 kph)
- 10SM
09:53
Clear
79°F / 26°C 63°F / 17°C 58% 30.06 in
(1018 mb)
Variable 5.8 mph
(Variable 9 kph)
- 10SM
08:53
Clear
77°F / 25°C 61°F / 16°C 57% 30.09 in
(1019 mb)
N 8.1 mph
(N 13 kph)
- 10SM
07:53
Clear
75°F / 24°C 61°F / 16°C 61% 30.06 in
(1018 mb)
N 11.5 mph
(N 19 kph)
- 10SM
06:53
Clear
73°F / 23°C 61°F / 16°C 65% 30.06 in
(1018 mb)
N 4.6 mph
(N 7 kph)
- 10SM
05:53
Clear
70°F / 21°C 61°F / 16°C 73% 30.04 in
(1017 mb)
Calm - 10SM
04:53
Clear
66°F / 19°C 57°F / 14°C 73% 30.04 in
(1017 mb)
NNW 4.6 mph
(NNW 7 kph)
- 10SM
03:53
Clear
70°F / 21°C 59°F / 15°C 69% 30.01 in
(1016 mb)
N 6.9 mph
(N 11 kph)
- 10SM
02:53
Clear
72°F / 22°C 63°F / 17°C 73% 30.01 in
(1016 mb)
N 4.6 mph
(N 7 kph)
- 10SM
01:53
Clear
75°F / 24°C 64°F / 18°C 69% 29.98 in
(1015 mb)
N 11.5 mph
(N 19 kph)
- 10SM
00:53
Clear
77°F / 25°C 72°F / 22°C 83% 29.95 in
(1014 mb)
NNW 6.9 mph
(NNW 11 kph)
- 10SM
Time Weather Temperature Dewpoint Humidity Pressure Winds Precip Visibility


Weather for websites

WeatherForYou.com, LLC is not responsible for any damages or problems caused by this service. Current weather conditions are obtained from the closest station including government and personal stations which may have varying degrees of accuracy. Weather forecasts are derived from the NOAA NDFD. Like all things, this site belongs to Jesus Christ... He just trusts me to maintain it. If you have any questions or comments email webmaster@weatherforyou.com

Copyright © 2014, WeatherForYou.com LLC. All rights reserved.